Year,Month,Day,Hour,Minute,Value (Times are PST for temperature in C)
2016,08,13,00,00,22.60
2016,08,13,00,01,22.60
2016,08,13,00,02,22.60
2016,08,13,00,03,22.60
2016,08,13,00,04,22.60
2016,08,13,00,05,22.60
2016,08,13,00,06,22.60
2016,08,13,00,07,22.60
2016,08,13,00,08,22.60
2016,08,13,00,09,22.60
2016,08,13,00,10,22.60
2016,08,13,00,11,22.60
2016,08,13,00,12,22.70
2016,08,13,00,13,22.60
2016,08,13,00,14,22.60
2016,08,13,00,15,22.60
2016,08,13,00,16,22.60
2016,08,13,00,17,22.60
2016,08,13,00,18,22.60
2016,08,13,00,19,22.60
2016,08,13,00,20,22.60
2016,08,13,00,21,22.60
2016,08,13,00,22,22.60
2016,08,13,00,23,22.60
2016,08,13,00,24,22.60
2016,08,13,00,25,22.60
2016,08,13,00,26,22.60
2016,08,13,00,27,22.60
2016,08,13,00,28,22.70
2016,08,13,00,29,22.70
2016,08,13,00,30,22.70
2016,08,13,00,31,22.80
2016,08,13,00,32,22.80
2016,08,13,00,33,22.80
2016,08,13,00,34,22.80
2016,08,13,00,35,22.80
2016,08,13,00,36,22.80
2016,08,13,00,37,22.90
2016,08,13,00,38,22.90
2016,08,13,00,39,22.90
2016,08,13,00,40,22.90
2016,08,13,00,41,22.90
2016,08,13,00,42,22.80
2016,08,13,00,43,22.80
2016,08,13,00,44,22.80
2016,08,13,00,45,22.80
2016,08,13,00,46,22.80
2016,08,13,00,47,22.80
2016,08,13,00,48,22.80
2016,08,13,00,49,22.70
2016,08,13,00,50,22.70
2016,08,13,00,51,22.70
2016,08,13,00,52,22.70
2016,08,13,00,53,22.70
2016,08,13,00,54,22.70
2016,08,13,00,55,22.70
2016,08,13,00,56,22.60
2016,08,13,00,57,22.60
2016,08,13,00,58,22.60
2016,08,13,00,59,22.60
2016,08,13,01,00,22.50
2016,08,13,01,01,22.50
2016,08,13,01,02,22.50
2016,08,13,01,03,22.50
2016,08,13,01,04,22.40
2016,08,13,01,05,22.40
2016,08,13,01,06,22.40
2016,08,13,01,07,22.40
2016,08,13,01,08,22.40
2016,08,13,01,09,22.40
2016,08,13,01,10,22.40
2016,08,13,01,11,22.40
2016,08,13,01,12,22.40
2016,08,13,01,13,22.40
2016,08,13,01,14,22.30
2016,08,13,01,15,22.40
2016,08,13,01,16,22.40
2016,08,13,01,17,22.40
2016,08,13,01,18,22.40
2016,08,13,01,19,22.40
2016,08,13,01,20,22.40
2016,08,13,01,21,22.40
2016,08,13,01,22,22.40
2016,08,13,01,23,22.40
2016,08,13,01,24,22.40
2016,08,13,01,25,22.40
2016,08,13,01,26,22.40
2016,08,13,01,27,22.40
2016,08,13,01,28,22.30
2016,08,13,01,29,22.30
2016,08,13,01,30,22.30
2016,08,13,01,31,22.30
2016,08,13,01,32,22.30
2016,08,13,01,33,22.30
2016,08,13,01,34,22.40
2016,08,13,01,35,22.40
2016,08,13,01,36,22.40
2016,08,13,01,37,22.40
2016,08,13,01,38,22.40
2016,08,13,01,39,22.30
2016,08,13,01,40,22.30
2016,08,13,01,41,22.20
2016,08,13,01,42,22.20
2016,08,13,01,43,22.20
2016,08,13,01,44,22.20
2016,08,13,01,45,22.10
2016,08,13,01,46,22.10
2016,08,13,01,47,22.10
2016,08,13,01,48,22.10
2016,08,13,01,49,22.00
2016,08,13,01,50,22.00
2016,08,13,01,51,22.00
2016,08,13,01,52,22.10
2016,08,13,01,53,22.10
2016,08,13,01,54,22.10
2016,08,13,01,55,22.10
2016,08,13,01,56,22.10
2016,08,13,01,57,22.10
2016,08,13,01,58,22.10
2016,08,13,01,59,22.10
2016,08,13,02,00,22.10
2016,08,13,02,01,22.10
2016,08,13,02,02,22.10
2016,08,13,02,03,22.10
2016,08,13,02,04,22.10
2016,08,13,02,05,22.10
2016,08,13,02,06,22.20
2016,08,13,02,07,22.20
2016,08,13,02,08,22.20
2016,08,13,02,09,22.30
2016,08,13,02,10,22.30
2016,08,13,02,11,22.30
2016,08,13,02,12,22.30
2016,08,13,02,13,22.30
2016,08,13,02,14,22.30
2016,08,13,02,15,22.30
2016,08,13,02,16,22.30
2016,08,13,02,17,22.30
2016,08,13,02,18,22.30
2016,08,13,02,19,22.30
2016,08,13,02,20,22.30
2016,08,13,02,21,22.30
2016,08,13,02,22,22.30
2016,08,13,02,23,22.30
2016,08,13,02,24,22.30
2016,08,13,02,25,22.30
2016,08,13,02,26,22.30
2016,08,13,02,27,22.20
2016,08,13,02,28,22.20
2016,08,13,02,29,22.20
2016,08,13,02,30,22.20
2016,08,13,02,31,22.20
2016,08,13,02,32,22.10
2016,08,13,02,33,22.10
2016,08,13,02,34,22.10
2016,08,13,02,35,22.10
2016,08,13,02,36,22.10
2016,08,13,02,37,22.10
2016,08,13,02,38,22.10
2016,08,13,02,39,22.10
2016,08,13,02,40,22.10
2016,08,13,02,41,22.10
2016,08,13,02,42,22.10
2016,08,13,02,43,22.10
2016,08,13,02,44,22.10
2016,08,13,02,45,22.10
2016,08,13,02,46,22.10
2016,08,13,02,47,22.10
2016,08,13,02,48,22.10
2016,08,13,02,49,22.10
2016,08,13,02,50,22.10
2016,08,13,02,51,22.00
2016,08,13,02,52,22.00
2016,08,13,02,53,22.00
2016,08,13,02,54,21.90
2016,08,13,02,55,21.90
2016,08,13,02,56,21.90
2016,08,13,02,57,21.90
2016,08,13,02,58,21.90
2016,08,13,02,59,21.80
2016,08,13,03,00,21.80
2016,08,13,03,01,21.80
2016,08,13,03,02,21.80
2016,08,13,03,03,21.80
2016,08,13,03,06,21.70
2016,08,13,03,07,21.70
2016,08,13,03,08,21.70
2016,08,13,03,09,21.70
2016,08,13,03,10,21.70
2016,08,13,03,11,21.70
2016,08,13,03,12,21.70
2016,08,13,03,13,21.70
2016,08,13,03,14,21.70
2016,08,13,03,15,21.60
2016,08,13,03,16,21.60
2016,08,13,03,17,21.60
2016,08,13,03,18,21.60
2016,08,13,03,19,21.60
2016,08,13,03,20,21.50
2016,08,13,03,21,21.50
2016,08,13,03,22,21.50
2016,08,13,03,23,21.40
2016,08,13,03,24,21.40
2016,08,13,03,25,21.40
2016,08,13,03,26,21.40
2016,08,13,03,27,21.40
2016,08,13,03,28,21.30
2016,08,13,03,29,21.30
2016,08,13,03,30,21.30
2016,08,13,03,31,21.30
2016,08,13,03,32,21.30
2016,08,13,03,33,21.30
2016,08,13,03,34,21.30
2016,08,13,03,35,21.30
2016,08,13,03,36,21.30
2016,08,13,03,37,21.30
2016,08,13,03,38,21.30
2016,08,13,03,39,21.30
2016,08,13,03,40,21.30
2016,08,13,03,41,21.30
2016,08,13,03,42,21.30
2016,08,13,03,43,21.30
2016,08,13,03,44,21.30
2016,08,13,03,45,21.30
2016,08,13,03,46,21.30
2016,08,13,03,47,21.30
2016,08,13,03,48,21.30
2016,08,13,03,49,21.20
2016,08,13,03,50,21.20
2016,08,13,03,51,21.20
2016,08,13,03,52,21.20
2016,08,13,03,53,21.20
2016,08,13,03,54,21.20
2016,08,13,03,55,21.20
2016,08,13,03,56,21.20
2016,08,13,03,57,21.20
2016,08,13,03,58,21.20
2016,08,13,03,59,21.20
2016,08,13,04,00,21.20
2016,08,13,04,01,21.20
2016,08,13,04,02,21.20
2016,08,13,04,03,21.20
2016,08,13,04,04,21.30
2016,08,13,04,05,21.30
2016,08,13,04,06,21.30
2016,08,13,04,07,21.30
2016,08,13,04,08,21.30
2016,08,13,04,09,21.30
2016,08,13,04,10,21.30
2016,08,13,04,11,21.20
2016,08,13,04,12,21.20
2016,08,13,04,13,21.10
2016,08,13,04,14,21.10
2016,08,13,04,15,21.10
2016,08,13,04,16,21.00
2016,08,13,04,17,21.00
2016,08,13,04,18,20.90
2016,08,13,04,19,20.90
2016,08,13,04,20,20.90
2016,08,13,04,21,20.80
2016,08,13,04,22,20.80
2016,08,13,04,23,20.70
2016,08,13,04,24,20.70
2016,08,13,04,25,20.60
2016,08,13,04,26,20.60
2016,08,13,04,27,20.60
2016,08,13,04,28,20.50
2016,08,13,04,29,20.40
2016,08,13,04,30,20.40
2016,08,13,04,31,20.40
2016,08,13,04,32,20.30
2016,08,13,04,33,20.30
2016,08,13,04,34,20.30
2016,08,13,04,35,20.20
2016,08,13,04,36,20.20
2016,08,13,04,37,20.20
2016,08,13,04,38,20.20
2016,08,13,04,39,20.10
2016,08,13,04,40,20.10
2016,08,13,04,41,20.10
2016,08,13,04,42,20.00
2016,08,13,04,43,20.00
2016,08,13,04,44,19.90
2016,08,13,04,45,19.90
2016,08,13,04,46,19.80
2016,08,13,04,47,19.80
2016,08,13,04,48,19.80
2016,08,13,04,49,19.80
2016,08,13,04,50,19.70
2016,08,13,04,51,19.70
2016,08,13,04,52,19.60
2016,08,13,04,53,19.60
2016,08,13,04,54,19.60
2016,08,13,04,55,19.50
2016,08,13,04,56,19.50
2016,08,13,04,57,19.50
2016,08,13,04,58,19.40
2016,08,13,04,59,19.40
2016,08,13,05,00,19.40
2016,08,13,05,01,19.40
2016,08,13,05,02,19.30
2016,08,13,05,03,19.30
2016,08,13,05,04,19.30
2016,08,13,05,05,19.20
2016,08,13,05,06,19.20
2016,08,13,05,07,19.20
2016,08,13,05,08,19.20
2016,08,13,05,09,19.20
2016,08,13,05,10,19.10
2016,08,13,05,11,19.10
2016,08,13,05,12,19.10
2016,08,13,05,13,19.10
2016,08,13,05,14,19.00
2016,08,13,05,15,19.00
2016,08,13,05,16,19.00
2016,08,13,05,17,18.90
2016,08,13,05,18,18.90
2016,08,13,05,19,18.90
2016,08,13,05,20,18.90
2016,08,13,05,21,18.90
2016,08,13,05,22,18.80
2016,08,13,05,23,18.80
2016,08,13,05,24,18.80
2016,08,13,05,25,18.80
2016,08,13,05,26,18.80
2016,08,13,05,27,18.80
2016,08,13,05,28,18.80
2016,08,13,05,29,18.70
2016,08,13,05,30,18.70
2016,08,13,05,31,18.70
2016,08,13,05,32,18.60
2016,08,13,05,33,18.60
2016,08,13,05,34,18.60
2016,08,13,05,35,18.50
2016,08,13,05,36,18.50
2016,08,13,05,37,18.50
2016,08,13,05,38,18.40
2016,08,13,05,39,18.40
2016,08,13,05,40,18.40
2016,08,13,05,41,18.40
2016,08,13,05,42,18.40
2016,08,13,05,43,18.40
2016,08,13,05,44,18.40
2016,08,13,05,45,18.40
2016,08,13,05,46,18.40
2016,08,13,05,47,18.30
2016,08,13,05,48,18.30
2016,08,13,05,49,18.30
2016,08,13,05,50,18.30
2016,08,13,05,51,18.30
2016,08,13,05,52,18.30
2016,08,13,05,53,18.30
2016,08,13,05,54,18.30
2016,08,13,05,55,18.30
2016,08,13,05,56,18.20
2016,08,13,05,57,18.20
2016,08,13,05,58,18.20
2016,08,13,05,59,18.20
2016,08,13,06,00,18.20
2016,08,13,06,01,18.20
2016,08,13,06,02,18.20
2016,08,13,06,03,18.20
2016,08,13,06,04,18.20
2016,08,13,06,05,18.20
2016,08,13,06,06,18.20
2016,08,13,06,07,18.20
2016,08,13,06,08,18.20
2016,08,13,06,09,18.20
2016,08,13,06,10,18.10
2016,08,13,06,11,18.10
2016,08,13,06,12,18.10
2016,08,13,06,13,18.10
2016,08,13,06,14,18.10
2016,08,13,06,15,18.10
2016,08,13,06,16,18.10
2016,08,13,06,17,18.10
2016,08,13,06,18,18.10
2016,08,13,06,19,18.10
2016,08,13,06,20,18.10
2016,08,13,06,21,18.10
2016,08,13,06,22,18.10
2016,08,13,06,23,18.10
2016,08,13,06,24,18.10
2016,08,13,06,25,18.10
2016,08,13,06,26,18.10
2016,08,13,06,27,18.10
2016,08,13,06,28,18.10
2016,08,13,06,29,18.10
2016,08,13,06,30,18.10
2016,08,13,06,31,18.10
2016,08,13,06,32,18.10
2016,08,13,06,33,18.10
2016,08,13,06,34,18.10
2016,08,13,06,35,18.10
2016,08,13,06,36,18.10
2016,08,13,06,37,18.10
2016,08,13,06,38,18.10
2016,08,13,06,39,18.10
2016,08,13,06,40,18.10
2016,08,13,06,41,18.10
2016,08,13,06,42,18.00
2016,08,13,06,43,18.10
2016,08,13,06,44,18.00
2016,08,13,06,45,18.00
2016,08,13,06,46,18.00
2016,08,13,06,47,18.00
2016,08,13,06,48,18.00
2016,08,13,06,49,18.00
2016,08,13,06,50,18.00
2016,08,13,06,51,18.00
2016,08,13,06,52,18.00
2016,08,13,06,53,18.00
2016,08,13,06,54,18.00
2016,08,13,06,55,18.00
2016,08,13,06,56,18.00
2016,08,13,06,57,18.00
2016,08,13,06,58,18.00
2016,08,13,06,59,18.00
2016,08,13,07,00,18.00
2016,08,13,07,01,18.00
2016,08,13,07,02,18.00
2016,08,13,07,03,18.00
2016,08,13,07,04,18.10
2016,08,13,07,05,18.10
2016,08,13,07,06,18.10
2016,08,13,07,07,18.10
2016,08,13,07,08,18.10
2016,08,13,07,09,18.10
2016,08,13,07,10,18.20
2016,08,13,07,11,18.20
2016,08,13,07,12,18.20
2016,08,13,07,13,18.20
2016,08,13,07,14,18.20
2016,08,13,07,15,18.20
2016,08,13,07,16,18.20
2016,08,13,07,17,18.20
2016,08,13,07,18,18.20
2016,08,13,07,19,18.30
2016,08,13,07,20,18.30
2016,08,13,07,21,18.30
2016,08,13,07,22,18.30
2016,08,13,07,23,18.30
2016,08,13,07,24,18.30
2016,08,13,07,25,18.30
2016,08,13,07,26,18.40
2016,08,13,07,27,18.40
2016,08,13,07,28,18.40
2016,08,13,07,29,18.50
2016,08,13,07,30,18.50
2016,08,13,07,31,18.60
2016,08,13,07,32,18.60
2016,08,13,07,33,18.70
2016,08,13,07,34,18.70
2016,08,13,07,35,18.70
2016,08,13,07,36,18.80
2016,08,13,07,37,18.80
2016,08,13,07,38,18.90
2016,08,13,07,39,18.90
2016,08,13,07,40,18.90
2016,08,13,07,41,19.00
2016,08,13,07,42,19.00
2016,08,13,07,43,19.10
2016,08,13,07,44,19.10
2016,08,13,07,45,19.20
2016,08,13,07,46,19.30
2016,08,13,07,47,19.40
2016,08,13,07,48,19.40
2016,08,13,07,49,19.50
2016,08,13,07,50,19.60
2016,08,13,07,51,19.60
2016,08,13,07,52,19.60
2016,08,13,07,53,19.70
2016,08,13,07,54,19.70
2016,08,13,07,55,19.70
2016,08,13,07,56,19.80
2016,08,13,07,57,19.80
2016,08,13,07,58,19.90
2016,08,13,07,59,19.90
2016,08,13,08,00,19.90
2016,08,13,08,01,19.90
2016,08,13,08,02,20.00
2016,08,13,08,03,20.00
2016,08,13,08,04,20.00
2016,08,13,08,05,20.10
2016,08,13,08,06,20.10
2016,08,13,08,07,20.10
2016,08,13,08,08,20.20
2016,08,13,08,09,20.20
2016,08,13,08,10,20.30
2016,08,13,08,11,20.30
2016,08,13,08,12,20.30
2016,08,13,08,13,20.40
2016,08,13,08,14,20.40
2016,08,13,08,15,20.40
2016,08,13,08,16,20.50
2016,08,13,08,17,20.50
2016,08,13,08,18,20.50
2016,08,13,08,19,20.60
2016,08,13,08,20,20.60
2016,08,13,08,21,20.60
2016,08,13,08,22,20.60
2016,08,13,08,23,20.60
2016,08,13,08,24,20.70
2016,08,13,08,25,20.70
2016,08,13,08,26,20.70
2016,08,13,08,27,20.70
2016,08,13,08,28,20.80
2016,08,13,08,29,20.80
2016,08,13,08,30,20.80
2016,08,13,08,31,20.90
2016,08,13,08,32,20.90
2016,08,13,08,33,20.90
2016,08,13,08,34,20.90
2016,08,13,08,35,20.90
2016,08,13,08,36,21.00
2016,08,13,08,37,21.00
2016,08,13,08,38,21.00
2016,08,13,08,39,21.10
2016,08,13,08,40,21.10
2016,08,13,08,41,21.10
2016,08,13,08,42,21.20
2016,08,13,08,43,21.20
2016,08,13,08,44,21.20
2016,08,13,08,45,21.30
2016,08,13,08,46,21.30
2016,08,13,08,47,21.30
2016,08,13,08,48,21.40
2016,08,13,08,49,21.40
2016,08,13,08,50,21.40
2016,08,13,08,51,21.50
2016,08,13,08,52,21.60
2016,08,13,08,53,21.60
2016,08,13,08,54,21.70
2016,08,13,08,55,21.80
2016,08,13,08,56,21.80
2016,08,13,08,57,21.90
2016,08,13,08,58,22.10
2016,08,13,08,59,22.20
2016,08,13,09,00,22.20
2016,08,13,09,01,22.30
2016,08,13,09,02,22.30
2016,08,13,09,03,22.40
2016,08,13,09,04,22.40
2016,08,13,09,05,22.40
2016,08,13,09,06,22.50
2016,08,13,09,07,22.50
2016,08,13,09,08,22.60
2016,08,13,09,09,22.60
2016,08,13,09,10,22.60
2016,08,13,09,11,22.60
2016,08,13,09,12,22.70
2016,08,13,09,13,22.70
2016,08,13,09,14,22.80
2016,08,13,09,15,22.80
2016,08,13,09,16,22.80
2016,08,13,09,17,22.90
2016,08,13,09,18,22.90
2016,08,13,09,19,22.90
2016,08,13,09,20,22.90
2016,08,13,09,21,22.90
2016,08,13,09,22,22.90
2016,08,13,09,23,22.90
2016,08,13,09,24,22.90
2016,08,13,09,25,23.00
2016,08,13,09,26,23.00
2016,08,13,09,27,23.00
2016,08,13,09,28,23.00
2016,08,13,09,29,23.10
2016,08,13,09,30,23.10
2016,08,13,09,31,23.10
2016,08,13,09,32,23.10
2016,08,13,09,33,23.20
2016,08,13,09,34,23.20
2016,08,13,09,35,23.20
2016,08,13,09,36,23.30
2016,08,13,09,37,23.30
2016,08,13,09,38,23.30
2016,08,13,09,39,23.40
2016,08,13,09,40,23.40
2016,08,13,09,41,23.50
2016,08,13,09,42,23.60
2016,08,13,09,43,23.60
2016,08,13,09,44,23.70
2016,08,13,09,45,23.70
2016,08,13,09,46,23.80
2016,08,13,09,47,23.90
2016,08,13,09,48,24.00
2016,08,13,09,49,24.10
2016,08,13,09,50,24.20
2016,08,13,09,51,24.30
2016,08,13,09,52,24.40
2016,08,13,09,53,24.50
2016,08,13,09,54,24.50
2016,08,13,09,55,24.60
2016,08,13,09,56,24.70
2016,08,13,09,57,24.60
2016,08,13,09,58,24.60
2016,08,13,09,59,24.60
2016,08,13,10,00,24.60
2016,08,13,10,01,24.50
2016,08,13,10,02,24.50
2016,08,13,10,03,24.40
2016,08,13,10,04,24.40
2016,08,13,10,05,24.40
2016,08,13,10,06,24.40
2016,08,13,10,07,24.40
2016,08,13,10,08,24.40
2016,08,13,10,09,24.40
2016,08,13,10,10,24.30
2016,08,13,10,11,24.30
2016,08,13,10,12,24.20
2016,08,13,10,13,24.20
2016,08,13,10,14,24.10
2016,08,13,10,15,24.10
2016,08,13,10,16,24.10
2016,08,13,10,17,24.10
2016,08,13,10,18,24.10
2016,08,13,10,19,24.00
2016,08,13,10,20,23.90
2016,08,13,10,21,23.90
2016,08,13,10,22,23.90
2016,08,13,10,23,23.90
2016,08,13,10,24,23.90
2016,08,13,10,25,23.90
2016,08,13,10,26,23.90
2016,08,13,10,27,23.90
2016,08,13,10,28,24.00
2016,08,13,10,29,24.10
2016,08,13,10,30,24.10
2016,08,13,10,31,24.10
2016,08,13,10,32,24.20
2016,08,13,10,33,24.30
2016,08,13,10,34,24.40
2016,08,13,10,35,24.50
2016,08,13,10,36,24.50
2016,08,13,10,37,24.60
2016,08,13,10,38,24.70
2016,08,13,10,39,24.70
2016,08,13,10,40,24.80
2016,08,13,10,41,24.90
2016,08,13,10,42,24.90
2016,08,13,10,43,25.00
2016,08,13,10,44,25.00
2016,08,13,10,45,25.10
2016,08,13,10,46,25.10
2016,08,13,10,47,25.10
2016,08,13,10,48,25.10
2016,08,13,10,49,25.10
2016,08,13,10,50,25.20
2016,08,13,10,51,25.20
2016,08,13,10,52,25.30
2016,08,13,10,53,25.30
2016,08,13,10,54,25.30
2016,08,13,10,55,25.30
2016,08,13,10,56,25.30
2016,08,13,10,57,25.30
2016,08,13,10,58,25.20
2016,08,13,10,59,25.20
2016,08,13,11,00,25.20
2016,08,13,11,01,25.10
2016,08,13,11,02,25.00
2016,08,13,11,03,25.00
2016,08,13,11,04,24.90
2016,08,13,11,05,25.00
2016,08,13,11,06,25.00
2016,08,13,11,07,25.10
2016,08,13,11,08,25.30
2016,08,13,11,09,25.50
2016,08,13,11,10,25.50
2016,08,13,11,11,25.60
2016,08,13,11,12,25.60
2016,08,13,11,13,25.60
2016,08,13,11,14,25.60
2016,08,13,11,15,25.70
2016,08,13,11,16,25.70
2016,08,13,11,17,25.80
2016,08,13,11,18,25.80
2016,08,13,11,19,25.90
2016,08,13,11,20,25.90
2016,08,13,11,21,26.00
2016,08,13,11,22,26.00
2016,08,13,11,23,26.10
2016,08,13,11,24,26.20
2016,08,13,11,25,26.20
2016,08,13,11,26,26.30
2016,08,13,11,27,26.40
2016,08,13,11,28,26.60
2016,08,13,11,29,26.70
2016,08,13,11,30,26.80
2016,08,13,11,31,26.90
2016,08,13,11,32,26.90
2016,08,13,11,33,26.90
2016,08,13,11,34,26.90
2016,08,13,11,35,26.80
2016,08,13,11,36,26.70
2016,08,13,11,37,26.70
2016,08,13,11,38,26.60
2016,08,13,11,39,26.60
2016,08,13,11,40,26.50
2016,08,13,11,41,26.50
2016,08,13,11,42,26.40
2016,08,13,11,43,26.40
2016,08,13,11,44,26.30
2016,08,13,11,45,26.30
2016,08,13,11,46,26.30
2016,08,13,11,47,26.30
2016,08,13,11,48,26.30
2016,08,13,11,49,26.30
2016,08,13,11,50,26.40
2016,08,13,11,51,26.50
2016,08,13,11,52,26.60
2016,08,13,11,53,26.70
2016,08,13,11,54,26.80
2016,08,13,11,55,26.80
2016,08,13,11,56,26.80
2016,08,13,11,57,26.80
2016,08,13,11,58,26.90
2016,08,13,11,59,27.00
2016,08,13,12,00,27.10
2016,08,13,12,01,27.10
2016,08,13,12,02,27.30
2016,08,13,12,03,27.40
2016,08,13,12,04,27.50
2016,08,13,12,05,27.60
2016,08,13,12,06,27.60
2016,08,13,12,07,27.60
2016,08,13,12,08,27.50
2016,08,13,12,09,27.40
2016,08,13,12,10,27.50
2016,08,13,12,11,27.50
2016,08,13,12,12,27.40
2016,08,13,12,13,27.30
2016,08,13,12,14,27.30
2016,08,13,12,15,27.30
2016,08,13,12,16,27.30
2016,08,13,12,17,27.30
2016,08,13,12,18,27.20
2016,08,13,12,19,27.20
2016,08,13,12,20,27.20
2016,08,13,12,21,27.20
2016,08,13,12,22,27.30
2016,08,13,12,23,27.30
2016,08,13,12,24,27.40
2016,08,13,12,25,27.40
2016,08,13,12,26,27.30
2016,08,13,12,27,27.20
2016,08,13,12,28,27.20
2016,08,13,12,29,27.20
2016,08,13,12,30,27.20
2016,08,13,12,31,27.20
2016,08,13,12,32,27.10
2016,08,13,12,33,27.10
2016,08,13,12,34,27.10
2016,08,13,12,35,27.00
2016,08,13,12,36,27.00
2016,08,13,12,37,26.90
2016,08,13,12,38,26.90
2016,08,13,12,39,26.80
2016,08,13,12,40,26.80
2016,08,13,12,41,26.90
2016,08,13,12,42,26.90
2016,08,13,12,43,26.90
2016,08,13,12,44,26.90
2016,08,13,12,45,26.90
2016,08,13,12,46,26.90
2016,08,13,12,47,26.90
2016,08,13,12,48,27.00
2016,08,13,12,49,27.00
2016,08,13,12,50,27.00
2016,08,13,12,51,27.10
2016,08,13,12,52,27.10
2016,08,13,12,53,27.20
2016,08,13,12,54,27.30
2016,08,13,12,55,27.40
2016,08,13,12,56,27.50
2016,08,13,12,57,27.50
2016,08,13,12,58,27.60
2016,08,13,12,59,27.60
2016,08,13,13,00,27.70
2016,08,13,13,01,27.70
2016,08,13,13,02,27.70
2016,08,13,13,03,27.60
2016,08,13,13,04,27.60
2016,08,13,13,05,27.50
2016,08,13,13,06,27.40
2016,08,13,13,07,27.30
2016,08,13,13,08,27.20
2016,08,13,13,09,27.20
2016,08,13,13,10,27.20
2016,08,13,13,11,27.20
2016,08,13,13,12,27.20
2016,08,13,13,13,27.20
2016,08,13,13,14,27.10
2016,08,13,13,15,27.10
2016,08,13,13,16,27.20
2016,08,13,13,17,27.20
2016,08,13,13,18,27.30
2016,08,13,13,19,27.40
2016,08,13,13,20,27.60
2016,08,13,13,21,27.60
2016,08,13,13,22,27.70
2016,08,13,13,23,27.70
2016,08,13,13,24,27.70
2016,08,13,13,25,27.50
2016,08,13,13,26,27.50
2016,08,13,13,27,27.50
2016,08,13,13,28,27.50
2016,08,13,13,29,27.50
2016,08,13,13,30,27.40
2016,08,13,13,31,27.40
2016,08,13,13,32,27.50
2016,08,13,13,33,27.50
2016,08,13,13,34,27.60
2016,08,13,13,35,27.60
2016,08,13,13,36,27.70
2016,08,13,13,37,27.70
2016,08,13,13,38,27.80
2016,08,13,13,39,27.90
2016,08,13,13,40,27.90
2016,08,13,13,41,28.00
2016,08,13,13,42,28.10
2016,08,13,13,43,28.00
2016,08,13,13,44,28.00
2016,08,13,13,45,28.00
2016,08,13,13,46,27.90
2016,08,13,13,47,27.90
2016,08,13,13,48,27.90
2016,08,13,13,49,27.90
2016,08,13,13,50,28.00
2016,08,13,13,51,28.00
2016,08,13,13,52,28.00
2016,08,13,13,53,28.00
2016,08,13,13,54,28.00
2016,08,13,13,55,28.00
2016,08,13,13,56,28.00
2016,08,13,13,57,28.00
2016,08,13,13,58,27.90
2016,08,13,13,59,27.80
2016,08,13,14,00,27.80
2016,08,13,14,01,27.80
2016,08,13,14,02,27.80
2016,08,13,14,03,27.80
2016,08,13,14,04,27.70
2016,08,13,14,05,27.70
2016,08,13,14,06,27.70
2016,08,13,14,07,27.70
2016,08,13,14,08,27.80
2016,08,13,14,09,27.80
2016,08,13,14,10,27.90
2016,08,13,14,11,27.90
2016,08,13,14,12,28.00
2016,08,13,14,13,28.10
2016,08,13,14,14,28.10
2016,08,13,14,15,28.10
2016,08,13,14,16,28.00
2016,08,13,14,17,27.90
2016,08,13,14,18,27.90
2016,08,13,14,19,27.90
2016,08,13,14,20,27.90
2016,08,13,14,21,28.00
2016,08,13,14,22,28.00
2016,08,13,14,23,28.00
2016,08,13,14,24,27.90
2016,08,13,14,25,27.90
2016,08,13,14,26,28.00
2016,08,13,14,27,28.00
2016,08,13,14,28,28.00
2016,08,13,14,29,28.10
2016,08,13,14,30,28.20
2016,08,13,14,31,28.30
2016,08,13,14,32,28.30
2016,08,13,14,33,28.40
2016,08,13,14,34,28.50
2016,08,13,14,35,28.60
2016,08,13,14,36,28.60
2016,08,13,14,37,28.70
2016,08,13,14,38,28.70
2016,08,13,14,39,28.60
2016,08,13,14,40,28.50
2016,08,13,14,41,28.50
2016,08,13,14,42,28.40
2016,08,13,14,43,28.40
2016,08,13,14,44,28.50
2016,08,13,14,45,28.60
2016,08,13,14,46,28.70
2016,08,13,14,47,28.80
2016,08,13,14,48,28.90
2016,08,13,14,49,28.90
2016,08,13,14,50,28.90
2016,08,13,14,51,29.00
2016,08,13,14,52,28.90
2016,08,13,14,53,28.80
2016,08,13,14,54,28.80
2016,08,13,14,55,28.80
2016,08,13,14,56,28.70
2016,08,13,14,57,28.80
2016,08,13,14,58,28.80
2016,08,13,14,59,28.90
2016,08,13,15,00,29.00
2016,08,13,15,01,29.00
2016,08,13,15,02,28.90
2016,08,13,15,03,28.90
2016,08,13,15,04,29.00
2016,08,13,15,05,28.90
2016,08,13,15,06,28.90
2016,08,13,15,07,29.00
2016,08,13,15,08,29.10
2016,08,13,15,09,29.00
2016,08,13,15,10,29.10
2016,08,13,15,11,29.10
2016,08,13,15,12,29.10
2016,08,13,15,13,29.20
2016,08,13,15,14,29.30
2016,08,13,15,15,29.30
2016,08,13,15,16,29.30
2016,08,13,15,17,29.20
2016,08,13,15,18,29.20
2016,08,13,15,19,29.20
2016,08,13,15,20,29.20
2016,08,13,15,21,29.20
2016,08,13,15,22,29.20
2016,08,13,15,23,29.20
2016,08,13,15,24,29.30
2016,08,13,15,25,29.30
2016,08,13,15,26,29.30
2016,08,13,15,27,29.30
2016,08,13,15,28,29.30
2016,08,13,15,29,29.30
2016,08,13,15,30,29.30
2016,08,13,15,31,29.30
2016,08,13,15,32,29.30
2016,08,13,15,33,29.40
2016,08,13,15,34,29.60
2016,08,13,15,35,29.60
2016,08,13,15,36,29.50
2016,08,13,15,37,29.50
2016,08,13,15,38,29.40
2016,08,13,15,39,29.30
2016,08,13,15,40,29.40
2016,08,13,15,41,29.40
2016,08,13,15,42,29.40
2016,08,13,15,43,29.40
2016,08,13,15,44,29.40
2016,08,13,15,45,29.40
2016,08,13,15,46,29.40
2016,08,13,15,47,29.50
2016,08,13,15,48,29.50
2016,08,13,15,49,29.60
2016,08,13,15,50,29.60
2016,08,13,15,51,29.60
2016,08,13,15,52,29.60
2016,08,13,15,53,29.60
2016,08,13,15,54,29.60
2016,08,13,15,55,29.60
2016,08,13,15,56,29.60
2016,08,13,15,57,29.60
2016,08,13,15,58,29.50
2016,08,13,15,59,29.50
2016,08,13,16,00,29.40
2016,08,13,16,01,29.40
2016,08,13,16,02,29.40
2016,08,13,16,03,29.40
2016,08,13,16,04,29.40
2016,08,13,16,05,29.50
2016,08,13,16,06,29.60
2016,08,13,16,07,29.60
2016,08,13,16,08,29.70
2016,08,13,16,09,29.70
2016,08,13,16,10,29.60
2016,08,13,16,11,29.60
2016,08,13,16,12,29.60
2016,08,13,16,13,29.70
2016,08,13,16,14,29.60
2016,08,13,16,15,29.60
2016,08,13,16,16,29.50
2016,08,13,16,17,29.50
2016,08,13,16,18,29.50
2016,08,13,16,19,29.40
2016,08,13,16,20,29.40
2016,08,13,16,21,29.40
2016,08,13,16,22,29.40
2016,08,13,16,23,29.40
2016,08,13,16,24,29.30
2016,08,13,16,25,29.30
2016,08,13,16,26,29.40
2016,08,13,16,27,29.40
2016,08,13,16,28,29.50
2016,08,13,16,29,29.50
2016,08,13,16,30,29.50
2016,08,13,16,31,29.60
2016,08,13,16,32,29.60
2016,08,13,16,33,29.60
2016,08,13,16,34,29.60
2016,08,13,16,35,29.70
2016,08,13,16,36,29.70
2016,08,13,16,37,29.70
2016,08,13,16,38,29.70
2016,08,13,16,39,29.70
2016,08,13,16,40,29.70
2016,08,13,16,41,29.70
2016,08,13,16,42,29.70
2016,08,13,16,43,29.70
2016,08,13,16,44,29.60
2016,08,13,16,45,29.60
2016,08,13,16,46,29.50
2016,08,13,16,47,29.40
2016,08,13,16,48,29.40
2016,08,13,16,49,29.40
2016,08,13,16,50,29.30
2016,08,13,16,51,29.30
2016,08,13,16,52,29.30
2016,08,13,16,53,29.20
2016,08,13,16,54,29.20
2016,08,13,16,55,29.10
2016,08,13,16,56,29.10
2016,08,13,16,57,29.00
2016,08,13,16,58,29.00
2016,08,13,16,59,29.00
2016,08,13,17,00,29.00
2016,08,13,17,01,29.10
2016,08,13,17,02,29.20
2016,08,13,17,03,29.30
2016,08,13,17,04,29.40
2016,08,13,17,05,29.50
2016,08,13,17,06,29.40
2016,08,13,17,07,29.40
2016,08,13,17,08,29.50
2016,08,13,17,09,29.60
2016,08,13,17,10,29.70
2016,08,13,17,11,29.70
2016,08,13,17,12,29.70
2016,08,13,17,13,29.80
2016,08,13,17,14,29.80
2016,08,13,17,15,29.80
2016,08,13,17,16,29.80
2016,08,13,17,17,29.80
2016,08,13,17,18,29.80
2016,08,13,17,19,29.80
2016,08,13,17,20,29.80
2016,08,13,17,21,29.80